| time (UTC) | temp F | wind direction | speed MPH | gust MPH | rain 1hr in | rain 24hr in | rain mn in | humidity % | barometer mb |
| 20260503012704 | 56 | 320 | 2.0 | 5.0 | 0.00 | 0.00 | 0.00 | 89 | 1010.9 |
| 20260503012204 | 57 | 334 | 3.0 | 6.0 | 0.00 | 0.00 | 0.00 | 89 | 1011.0 |
| 20260503010703 | 57 | 250 | 2.0 | 3.0 | 0.00 | 0.00 | 0.00 | 89 | 1011.7 |
| 20260503010204 | 57 | 282 | 3.0 | 3.0 | 0.00 | 0.00 | 0.00 | 89 | 1011.4 |
| 20260503005703 | 57 | 302 | 3.0 | 7.0 | 0.00 | 0.00 | 0.00 | 88 | 1011.3 |
| 20260503005204 | 57 | 296 | 6.0 | 9.0 | 0.00 | 0.00 | 0.00 | 88 | 1011.3 |
| 20260503004203 | 57 | 351 | 1.0 | 3.0 | 0.00 | 0.00 | 0.00 | 88 | 1011.4 |
| 20260503003703 | 58 | 272 | 5.0 | 8.0 | 0.00 | 0.00 | 0.00 | 88 | 1011.8 |
| 20260503003204 | 57 | 104 | 1.0 | 3.0 | 0.00 | 0.00 | 0.00 | 88 | 1011.8 |
| 20260503002703 | 57 | 115 | 2.0 | 3.0 | 0.00 | 0.00 | 0.00 | 88 | 1012.0 |
| 20260503002204 | 57 | 113 | 2.0 | 3.0 | 0.00 | 0.00 | 0.00 | 88 | 1012.1 |
| 20260503001704 | 57 | 124 | 2.0 | 3.0 | 0.00 | 0.00 | 0.00 | 88 | 1012.2 |
| 20260503001204 | 57 | 121 | 2.0 | 3.0 | 0.00 | 0.00 | 0.00 | 88 | 1012.3 |
| 20260503000704 | 57 | 97 | 1.0 | 3.0 | 0.00 | 0.00 | 0.00 | 88 | 1012.3 |
| 20260503000204 | 57 | 91 | 1.0 | 3.0 | 0.00 | 0.00 | 0.00 | 88 | 1012.5 |
| 20260502235704 | 57 | 155 | 2.0 | 3.0 | 0.00 | 0.00 | 0.00 | 88 | 1012.7 |
| 20260502235203 | 57 | 149 | 2.0 | 3.0 | 0.00 | 0.00 | 0.00 | 88 | 1012.6 |
| 20260502234704 | 57 | 126 | 2.0 | 3.0 | 0.00 | 0.00 | 0.00 | 88 | 1012.4 |
| 20260502234205 | 57 | 67 | 1.0 | 2.0 | 0.00 | 0.00 | 0.00 | 87 | 1012.3 |
| 20260502233703 | 57 | 63 | 1.0 | 2.0 | 0.00 | 0.00 | 0.00 | 87 | 1012.3 |
| 20260502233204 | 57 | 42 | 1.0 | 2.0 | 0.00 | 0.00 | 0.00 | 87 | 1012.2 |
| 20260502232704 | 57 | 44 | 0.0 | 3.0 | 0.00 | 0.00 | 0.00 | 87 | 1012.1 |
| 20260502232204 | 57 | 17 | 2.0 | 3.0 | 0.00 | 0.00 | 0.00 | 87 | 1012.2 |
| 20260502231704 | 57 | 54 | 1.0 | 3.0 | 0.00 | 0.00 | 0.00 | 87 | 1012.3 |
| 20260502230204 | 58 | 39 | 3.0 | 6.0 | 0.00 | 0.00 | 0.00 | 86 | 1012.5 |
| 20260502225705 | 58 | 46 | 4.0 | 9.0 | 0.00 | 0.00 | 0.00 | 86 | 1012.6 |
| 20260502225204 | 57 | 60 | 3.0 | 6.0 | 0.00 | 0.00 | 0.00 | 86 | 1012.8 |
| 20260502224705 | 57 | 83 | 4.0 | 9.0 | 0.00 | 0.00 | 0.00 | 86 | 1013.0 |
| 20260502223704 | 57 | 96 | 4.0 | 7.0 | 0.00 | 0.00 | 0.00 | 87 | 1013.1 |
| 20260502223204 | 57 | 80 | 3.0 | 6.0 | 0.00 | 0.00 | 0.00 | 86 | 1013.1 |
| 20260502222704 | 57 | 82 | 3.0 | 12.0 | 0.00 | 0.00 | 0.00 | 86 | 1012.9 |
| 20260502222204 | 57 | 112 | 7.0 | 13.0 | 0.00 | 0.00 | 0.00 | 86 | 1013.2 |
| 20260502221704 | 57 | 114 | 3.0 | 7.0 | 0.00 | 0.00 | 0.00 | 85 | 1012.8 |
| 20260502221205 | 57 | 79 | 2.0 | 3.0 | 0.00 | 0.00 | 0.00 | 85 | 1012.6 |
| 20260502220704 | 57 | 69 | 2.0 | 5.0 | 0.00 | 0.00 | 0.00 | 84 | 1012.7 |
| 20260502220205 | 57 | 52 | 2.0 | 3.0 | 0.00 | 0.00 | 0.00 | 84 | 1012.8 |
| 20260502215704 | 57 | 44 | 2.0 | 3.0 | 0.00 | 0.00 | 0.00 | 83 | 1012.8 |
| 20260502215204 | 57 | 48 | 1.0 | 3.0 | 0.00 | 0.00 | 0.00 | 83 | 1012.9 |
| 20260502213704 | 57 | 50 | 1.0 | 3.0 | 0.00 | 0.00 | 0.00 | 82 | 1013.2 |
| 20260502213204 | 57 | 10 | 1.0 | 3.0 | 0.00 | 0.00 | 0.00 | 81 | 1013.1 |
| 20260502212704 | 57 | 40 | 2.0 | 3.0 | 0.00 | 0.00 | 0.00 | 81 | 1013.2 |
| 20260502211204 | 58 | 348 | 2.0 | 3.0 | 0.00 | 0.00 | 0.00 | 78 | 1013.2 |
| 20260502210704 | 58 | 346 | 2.0 | 3.0 | 0.00 | 0.00 | 0.00 | 77 | 1013.2 |
| 20260502210204 | 58 | 335 | 2.0 | 3.0 | 0.00 | 0.00 | 0.00 | 75 | 1013.2 |
| 20260502205704 | 58 | 19 | 1.0 | 3.0 | 0.00 | 0.00 | 0.00 | 74 | 1013.2 |
| 20260502205204 | 58 | 5 | 1.0 | 3.0 | 0.00 | 0.00 | 0.00 | 73 | 1013.2 |
| 20260502204704 | 59 | 332 | 1.0 | 3.0 | 0.00 | 0.00 | 0.00 | 73 | 1013.2 |
| 20260502204204 | 59 | 317 | 1.0 | 3.0 | 0.00 | 0.00 | 0.00 | 72 | 1013.2 |
| 20260502203204 | 60 | 317 | 1.0 | 3.0 | 0.00 | 0.00 | 0.00 | 71 | 1013.3 |
| 20260502202204 | 60 | 324 | 1.0 | 2.0 | 0.00 | 0.00 | 0.00 | 71 | 1013.5 |
| 20260502201704 | 60 | 324 | 1.0 | 2.0 | 0.00 | 0.00 | 0.00 | 71 | 1013.5 |
| 20260502201205 | 61 | 331 | 1.0 | 2.0 | 0.00 | 0.00 | 0.00 | 71 | 1013.6 |
| 20260502200704 | 61 | 319 | 1.0 | 2.0 | 0.00 | 0.00 | 0.00 | 70 | 1013.6 |
| 20260502195702 | 61 | 292 | 1.0 | 3.0 | 0.00 | 0.00 | 0.00 | 70 | 1013.6 |
| 20260502195202 | 61 | 293 | 2.0 | 5.0 | 0.00 | 0.00 | 0.00 | 70 | 1013.6 |
| 20260502194703 | 61 | 293 | 1.0 | 3.0 | 0.00 | 0.00 | 0.00 | 69 | 1013.6 |
| 20260502194202 | 62 | 289 | 2.0 | 3.0 | 0.00 | 0.00 | 0.00 | 69 | 1013.6 |
| 20260502193702 | 62 | 292 | 2.0 | 3.0 | 0.00 | 0.00 | 0.00 | 69 | 1013.5 |
| 20260502193203 | 62 | 307 | 1.0 | 3.0 | 0.00 | 0.00 | 0.00 | 68 | 1013.6 |
| 20260502192702 | 62 | 296 | 1.0 | 3.0 | 0.00 | 0.00 | 0.00 | 68 | 1013.6 |
| 20260502191703 | 63 | 293 | 3.0 | 6.0 | 0.00 | 0.00 | 0.00 | 69 | 1013.5 |
| 20260502191202 | 63 | 305 | 2.0 | 3.0 | 0.00 | 0.00 | 0.00 | 71 | 1013.5 |
| 20260502190702 | 64 | 295 | 3.0 | 5.0 | 0.00 | 0.00 | 0.00 | 72 | 1013.5 |
| 20260502190202 | 64 | 290 | 2.0 | 6.0 | 0.00 | 0.00 | 0.00 | 72 | 1013.5 |
| 20260502185704 | 64 | 302 | 2.0 | 3.0 | 0.00 | 0.00 | 0.00 | 72 | 1013.4 |
| 20260502185203 | 65 | 296 | 2.0 | 3.0 | 0.00 | 0.00 | 0.00 | 73 | 1013.5 |
| 20260502184702 | 65 | 328 | 2.0 | 3.0 | 0.00 | 0.00 | 0.00 | 72 | 1013.5 |
| 20260502184203 | 65 | 303 | 3.0 | 7.0 | 0.00 | 0.00 | 0.00 | 72 | 1013.5 |
| 20260502183702 | 66 | 295 | 3.0 | 6.0 | 0.00 | 0.00 | 0.00 | 72 | 1013.5 |
| 20260502183203 | 66 | 315 | 2.0 | 3.0 | 0.00 | 0.00 | 0.00 | 71 | 1013.5 |
| 20260502182703 | 67 | 281 | 3.0 | 7.0 | 0.00 | 0.00 | 0.00 | 70 | 1013.4 |
| 20260502182203 | 67 | 290 | 4.0 | 7.0 | 0.00 | 0.00 | 0.00 | 69 | 1013.4 |
| 20260502181703 | 67 | 298 | 2.0 | 7.0 | 0.00 | 0.00 | 0.00 | 69 | 1013.5 |
| 20260502181203 | 68 | 288 | 4.0 | 9.0 | 0.00 | 0.00 | 0.00 | 69 | 1013.5 |
| 20260502180702 | 68 | 270 | 3.0 | 7.0 | 0.00 | 0.00 | 0.00 | 70 | 1013.5 |
| 20260502180203 | 68 | 276 | 4.0 | 9.0 | 0.00 | 0.00 | 0.00 | 70 | 1013.5 |
| 20260502170203 | 71 | 283 | 6.0 | 8.0 | 0.00 | 0.00 | 0.00 | 68 | 1013.7 |
| 20260502163703 | 72 | 294 | 5.0 | 10.0 | 0.00 | 0.00 | 0.00 | 66 | 1013.8 |
| 20260502162703 | 73 | 255 | 6.0 | 10.0 | 0.00 | 0.00 | 0.00 | 66 | 1013.9 |
| 20260502162203 | 73 | 288 | 4.0 | 12.0 | 0.00 | 0.00 | 0.00 | 66 | 1013.9 |
| 20260502161703 | 73 | 290 | 8.0 | 12.0 | 0.00 | 0.00 | 0.00 | 65 | 1014.0 |
| 20260502160703 | 74 | 299 | 5.0 | 12.0 | 0.00 | 0.00 | 0.00 | 64 | 1014.0 |
| 20260502160203 | 74 | 254 | 8.0 | 13.0 | 0.00 | 0.00 | 0.00 | 63 | 1014.1 |
| 20260502152203 | 73 | 265 | 5.0 | 13.0 | 0.00 | 0.00 | 0.00 | 64 | 1014.3 |
| 20260502151703 | 73 | 234 | 5.0 | 9.0 | 0.00 | 0.00 | 0.00 | 63 | 1014.4 |
| 20260502151204 | 73 | 289 | 3.0 | 9.0 | 0.00 | 0.00 | 0.00 | 63 | 1014.5 |
| 20260502150703 | 73 | 264 | 5.0 | 12.0 | 0.00 | 0.00 | 0.00 | 63 | 1014.5 |
| 20260502150203 | 74 | 260 | 7.0 | 12.0 | 0.00 | 0.00 | 0.00 | 61 | 1014.6 |
| 20260502130704 | 73 | 261 | 7.0 | 12.0 | 0.00 | 0.00 | 0.00 | 60 | 1015.5 |
| 20260502123704 | 73 | 249 | 8.0 | 13.0 | 0.00 | 0.00 | 0.00 | 57 | 1015.7 |
| 20260502123204 | 73 | 210 | 6.0 | 10.0 | 0.00 | 0.00 | 0.00 | 58 | 1015.7 |
| 20260502122703 | 72 | 250 | 8.0 | 15.0 | 0.00 | 0.00 | 0.00 | 58 | 1015.7 |
| 20260502122204 | 71 | 237 | 9.0 | 14.0 | 0.00 | 0.00 | 0.00 | 58 | 1015.7 |
| 20260502121704 | 73 | 240 | 7.0 | 12.0 | 0.00 | 0.00 | 0.00 | 57 | 1015.8 |
| 20260502121204 | 73 | 261 | 9.0 | 14.0 | 0.00 | 0.00 | 0.00 | 55 | 1015.8 |
| 20260502120705 | 73 | 259 | 7.0 | 12.0 | 0.00 | 0.00 | 0.00 | 53 | 1015.8 |
| 20260502120204 | 74 | 248 | 7.0 | 12.0 | 0.00 | 0.00 | 0.00 | 49 | 1015.7 |
| 20260502115704 | 74 | 237 | 6.0 | 12.0 | 0.00 | 0.00 | 0.00 | 48 | 1015.8 |
| 20260502115206 | 74 | 212 | 6.0 | 12.0 | 0.00 | 0.00 | 0.00 | 46 | 1015.7 |
| 20260502114704 | 74 | 230 | 6.0 | 14.0 | 0.00 | 0.00 | 0.00 | 45 | 1015.8 |
| 20260502114204 | 75 | 239 | 7.0 | 16.0 | 0.00 | 0.00 | 0.00 | 44 | 1015.7 |
| 20260502113704 | 74 | 240 | 5.0 | 10.0 | 0.00 | 0.00 | 0.00 | 45 | 1015.8 |
| 20260502113204 | 73 | 245 | 9.0 | 15.0 | 0.00 | 0.00 | 0.00 | 44 | 1015.9 |
| 20260502112704 | 73 | 255 | 8.0 | 16.0 | 0.00 | 0.00 | 0.00 | 43 | 1016.0 |
| 20260502111704 | 73 | 228 | 7.0 | 12.0 | 0.00 | 0.00 | 0.00 | 42 | 1016.1 |
| 20260502111205 | 73 | 237 | 4.0 | 8.0 | 0.00 | 0.00 | 0.00 | 44 | 1016.0 |
| 20260502110704 | 72 | 243 | 3.0 | 12.0 | 0.00 | 0.00 | 0.00 | 46 | 1016.0 |
| 20260502105702 | 70 | 229 | 5.0 | 9.0 | 0.00 | 0.00 | 0.00 | 48 | 1016.1 |
| 20260502105202 | 70 | 244 | 5.0 | 10.0 | 0.00 | 0.00 | 0.00 | 47 | 1016.1 |
| 20260502104703 | 70 | 215 | 5.0 | 10.0 | 0.00 | 0.00 | 0.00 | 48 | 1016.2 |
| 20260502104202 | 70 | 217 | 5.0 | 12.0 | 0.00 | 0.00 | 0.00 | 47 | 1016.2 |
| 20260502103202 | 71 | 249 | 5.0 | 13.0 | 0.00 | 0.00 | 0.00 | 44 | 1016.2 |
| 20260502102702 | 72 | 223 | 3.0 | 9.0 | 0.00 | 0.00 | 0.00 | 44 | 1016.2 |
| 20260502102203 | 72 | 229 | 5.0 | 12.0 | 0.00 | 0.00 | 0.00 | 45 | 1016.2 |
| 20260502101202 | 70 | 221 | 3.0 | 7.0 | 0.00 | 0.00 | 0.00 | 46 | 1016.3 |
| 20260502100703 | 70 | 197 | 5.0 | 9.0 | 0.00 | 0.00 | 0.00 | 46 | 1016.3 |
| 20260502100202 | 70 | 216 | 3.0 | 6.0 | 0.00 | 0.00 | 0.00 | 48 | 1016.3 |
| 20260502091202 | 71 | 218 | 6.0 | 12.0 | 0.00 | 0.00 | 0.00 | 48 | 1016.5 |
| 20260502090202 | 72 | 200 | 5.0 | 13.0 | 0.00 | 0.00 | 0.00 | 48 | 1016.5 |
| 20260502071203 | 62 | 164 | 2.0 | 10.0 | 0.00 | 0.00 | 0.00 | 57 | 1016.8 |
| 20260502070703 | 61 | 152 | 5.0 | 12.0 | 0.00 | 0.00 | 0.00 | 58 | 1016.8 |
| 20260502070203 | 61 | 159 | 3.0 | 12.0 | 0.00 | 0.00 | 0.00 | 59 | 1016.8 |
| 20260502065703 | 60 | 170 | 5.0 | 10.0 | 0.00 | 0.00 | 0.00 | 61 | 1016.8 |
| 20260502065203 | 60 | 159 | 4.0 | 9.0 | 0.00 | 0.00 | 0.00 | 61 | 1016.8 |
| 20260502064703 | 59 | 171 | 5.0 | 8.0 | 0.00 | 0.00 | 0.00 | 62 | 1016.9 |
| 20260502064203 | 59 | 173 | 3.0 | 9.0 | 0.00 | 0.00 | 0.00 | 63 | 1016.8 |
| 20260502063703 | 58 | 156 | 4.0 | 8.0 | 0.00 | 0.00 | 0.00 | 64 | 1016.8 |
| 20260502063203 | 58 | 149 | 5.0 | 9.0 | 0.00 | 0.00 | 0.00 | 64 | 1016.8 |
| 20260502062703 | 57 | 144 | 4.0 | 9.0 | 0.00 | 0.00 | 0.00 | 64 | 1016.8 |
| 20260502062203 | 57 | 141 | 3.0 | 9.0 | 0.00 | 0.00 | 0.00 | 65 | 1016.8 |
| 20260502061703 | 56 | 158 | 5.0 | 8.0 | 0.00 | 0.00 | 0.00 | 65 | 1016.8 |
| 20260502061203 | 56 | 151 | 4.0 | 8.0 | 0.00 | 0.00 | 0.00 | 66 | 1016.8 |
| 20260502055703 | 55 | 141 | 4.0 | 6.0 | 0.00 | 0.00 | 0.00 | 67 | 1016.8 |
| 20260502055203 | 55 | 133 | 3.0 | 7.0 | 0.00 | 0.00 | 0.00 | 67 | 1016.9 |
| 20260502054704 | 54 | 153 | 3.0 | 7.0 | 0.00 | 0.00 | 0.00 | 68 | 1016.9 |
| 20260502054204 | 54 | 141 | 4.0 | 8.0 | 0.00 | 0.00 | 0.00 | 68 | 1017.0 |
| 20260502053703 | 54 | 148 | 3.0 | 8.0 | 0.00 | 0.00 | 0.00 | 68 | 1017.0 |
| 20260502053204 | 53 | 144 | 3.0 | 8.0 | 0.00 | 0.00 | 0.00 | 68 | 1016.9 |
| 20260502052703 | 53 | 141 | 3.0 | 8.0 | 0.00 | 0.00 | 0.00 | 69 | 1016.9 |
| 20260502052203 | 53 | 156 | 2.0 | 9.0 | 0.00 | 0.00 | 0.00 | 69 | 1016.9 |
| 20260502051703 | 53 | 142 | 4.0 | 9.0 | 0.00 | 0.00 | 0.00 | 69 | 1016.9 |
| 20260502051204 | 52 | 139 | 5.0 | 9.0 | 0.00 | 0.00 | 0.00 | 69 | 1016.9 |
| 20260502050703 | 52 | 137 | 5.0 | 10.0 | 0.00 | 0.00 | 0.00 | 70 | 1017.0 |
| 20260502045703 | 52 | 138 | 3.0 | 7.0 | 0.00 | 0.00 | 0.00 | 71 | 1017.0 |
| 20260502045203 | 51 | 146 | 3.0 | 7.0 | 0.00 | 0.00 | 0.00 | 71 | 1017.0 |
| 20260502044704 | 51 | 136 | 3.0 | 8.0 | 0.00 | 0.00 | 0.00 | 71 | 1017.0 |
| 20260502044203 | 51 | 139 | 5.0 | 8.0 | 0.00 | 0.00 | 0.00 | 71 | 1016.9 |
| 20260502043703 | 51 | 141 | 3.0 | 7.0 | 0.00 | 0.00 | 0.00 | 71 | 1017.0 |
| 20260502043203 | 51 | 145 | 3.0 | 7.0 | 0.00 | 0.00 | 0.00 | 71 | 1017.0 |
| 20260502042703 | 51 | 141 | 3.0 | 8.0 | 0.00 | 0.00 | 0.00 | 71 | 1017.0 |
| 20260502042204 | 51 | 142 | 3.0 | 7.0 | 0.00 | 0.00 | 0.00 | 71 | 1017.0 |
| 20260502041704 | 51 | 145 | 5.0 | 8.0 | 0.00 | 0.00 | 0.00 | 70 | 1017.1 |
| 20260502041203 | 51 | 142 | 4.0 | 6.0 | 0.00 | 0.00 | 0.00 | 71 | 1017.1 |
| 20260502040703 | 51 | 140 | 3.0 | 6.0 | 0.00 | 0.00 | 0.00 | 71 | 1017.2 |
| 20260502040204 | 51 | 146 | 4.0 | 8.0 | 0.00 | 0.00 | 0.00 | 71 | 1017.2 |
| 20260502035703 | 51 | 159 | 3.0 | 8.0 | 0.00 | 0.00 | 0.00 | 71 | 1017.2 |
| 20260502035203 | 51 | 148 | 3.0 | 8.0 | 0.00 | 0.00 | 0.00 | 72 | 1017.3 |
| 20260502034703 | 51 | 146 | 3.0 | 7.0 | 0.00 | 0.00 | 0.00 | 72 | 1017.3 |
| 20260502034204 | 51 | 140 | 3.0 | 7.0 | 0.00 | 0.00 | 0.00 | 72 | 1017.3 |
| 20260502033704 | 51 | 154 | 4.0 | 9.0 | 0.00 | 0.00 | 0.00 | 72 | 1017.4 |
| 20260502032703 | 51 | 158 | 3.0 | 6.0 | 0.00 | 0.00 | 0.00 | 71 | 1017.5 |
| 20260502032204 | 51 | 157 | 2.0 | 5.0 | 0.00 | 0.00 | 0.00 | 71 | 1017.5 |
| 20260502031203 | 51 | 153 | 3.0 | 6.0 | 0.00 | 0.00 | 0.00 | 72 | 1017.5 |
| 20260502030704 | 51 | 154 | 3.0 | 8.0 | 0.00 | 0.00 | 0.00 | 72 | 1017.5 |
| 20260502030203 | 51 | 154 | 3.0 | 6.0 | 0.00 | 0.00 | 0.00 | 72 | 1017.5 |
| 20260502025703 | 51 | 160 | 3.0 | 6.0 | 0.00 | 0.00 | 0.00 | 73 | 1017.5 |
| 20260502025204 | 51 | 147 | 3.0 | 7.0 | 0.00 | 0.00 | 0.00 | 74 | 1017.6 |
| 20260502024704 | 51 | 141 | 3.0 | 6.0 | 0.00 | 0.00 | 0.00 | 74 | 1017.7 |
| 20260502024204 | 51 | 161 | 2.0 | 7.0 | 0.00 | 0.00 | 0.00 | 73 | 1017.7 |
| 20260502023704 | 51 | 159 | 3.0 | 6.0 | 0.00 | 0.00 | 0.00 | 73 | 1017.7 |
| 20260502023203 | 51 | 157 | 2.0 | 3.0 | 0.00 | 0.00 | 0.00 | 73 | 1017.8 |
| 20260502022703 | 51 | 164 | 1.0 | 5.0 | 0.00 | 0.00 | 0.00 | 73 | 1017.8 |
| 20260502022203 | 51 | 157 | 2.0 | 5.0 | 0.00 | 0.00 | 0.00 | 73 | 1017.9 |
| 20260502021704 | 51 | 149 | 3.0 | 5.0 | 0.00 | 0.00 | 0.00 | 74 | 1017.9 |
| 20260502021204 | 51 | 128 | 2.0 | 3.0 | 0.00 | 0.00 | 0.00 | 74 | 1017.9 |
| 20260502020703 | 51 | 125 | 3.0 | 3.0 | 0.00 | 0.00 | 0.00 | 75 | 1017.9 |
| 20260502020203 | 51 | 127 | 2.0 | 6.0 | 0.00 | 0.00 | 0.00 | 75 | 1018.0 |
| 20260502015703 | 51 | 137 | 2.0 | 3.0 | 0.00 | 0.00 | 0.00 | 74 | 1018.0 |
| 20260502014703 | 52 | 142 | 2.0 | 3.0 | 0.00 | 0.00 | 0.00 | 74 | 1018.1 |
| 20260502014204 | 52 | 131 | 2.0 | 3.0 | 0.00 | 0.00 | 0.00 | 73 | 1018.1 |
| 20260502013703 | 53 | 130 | 3.0 | 7.0 | 0.00 | 0.00 | 0.00 | 72 | 1018.1 |
| 20260502013203 | 53 | 135 | 2.0 | 7.0 | 0.00 | 0.00 | 0.00 | 72 | 1018.2 |